Cumberland, WV

7:16 PM EST on November 20, 2019 (GMT -0500)
Greater Cumberland Regional

Weather History for KCBE - October, 2019

Change the Weather History Date:

Tuesday, October 15, 2019

  Actual Average (KMRB) Record (KMRB)
Temperature  
Mean Temperature 54 °F -  
Max Temperature 71 °F 71 °F 86 °F (1941)
Min Temperature 37 °F 44 °F 27 °F (1987)
Degree Days  
Heating Degree Days 11    
Growing Degree Days 4 (Base 50)    
Moisture  
Dew Point 41 °F    
Average Humidity 68    
Maximum Humidity 99    
Minimum Humidity 33    
Precipitation  
Precipitation 0.00 in - - ()
Sea Level Pressure  
Sea Level Pressure 30.13 in    
Wind  
Wind Speed 2 mph ()    
Max Wind Speed 7 mph    
Max Gust Speed 16 mph    
Visibility 10.0 miles    
Events      
Averages and records for this station are not official NWS values.
T = Trace of Precipitation, MM = Missing Value Source: Averaged Metar Reports

Daily Weather History Graph

Daily Weather History Graph

Search for Another Location

Airport or City:

Astronomy

Oct. 15, 2019 Rise Set
Actual Time 7:24 AM EDT 6:36 PM EDT
Civil Twilight 6:57 AM EDT 7:03 PM EDT
Nautical Twilight 6:26 AM EDT 7:34 PM EDT
Astronomical Twilight 5:55 AM EDT 8:05 PM EDT
Moon 7:55 PM EDT (10/15) 8:53 AM EDT (10/15)
Length of Visible Light 12h 05m
Length of Day
11h 11m
Full, 97% of the Moon is Illuminated
Oct 15
Full
Oct 21
Last Quarter
Oct 27
New
Nov 4
First Quarter
Nov 12
Full

Hourly Weather History & Observations

Time (EDT) Temp. Windchill Dew Point Humidity Pressure Visibility Wind Dir Wind Speed Gust Speed Precip Events Conditions
12:00 AM 48.6 °F - 40.1 °F 73% 30.15 in 10.0 mi Calm Calm - N/A   Clear
12:20 AM 46.6 °F - 39.9 °F 78% 30.16 in 10.0 mi Calm Calm - N/A   Clear
12:40 AM 46.4 °F - 39.7 °F 78% 30.16 in 10.0 mi Calm Calm - N/A   Clear
1:00 AM 45.0 °F 41.8 °F 40.6 °F 85% 30.15 in 10.0 mi North 5.8 mph - N/A   Clear
1:20 AM 45.9 °F - 40.6 °F 82% 30.16 in 10.0 mi Calm Calm - N/A   Clear
1:40 AM 44.8 °F 42.4 °F 39.0 °F 80% 30.16 in 10.0 mi North 4.6 mph - N/A   Clear
2:00 AM 43.2 °F - 39.2 °F 86% 30.16 in 10.0 mi Calm Calm - N/A   Clear
2:20 AM 42.1 °F - 39.4 °F 90% 30.17 in 10.0 mi Calm Calm - N/A   Clear
2:40 AM 41.4 °F - 39.6 °F 93% 30.17 in 10.0 mi Calm Calm - N/A   Clear
3:00 AM 42.1 °F - 39.9 °F 92% 30.17 in 10.0 mi Calm Calm - N/A   Clear
3:20 AM 42.3 °F - 40.3 °F 93% 30.17 in 10.0 mi Calm Calm - N/A   Clear
3:40 AM 42.6 °F - 39.4 °F 88% 30.17 in 10.0 mi Calm Calm - N/A   Clear
4:00 AM 41.4 °F - 38.8 °F 91% 30.17 in 10.0 mi Calm Calm - N/A   Clear
4:20 AM 40.8 °F 38.8 °F 38.3 °F 91% 30.18 in 10.0 mi NNE 3.5 mph - N/A   Clear
4:40 AM 39.9 °F 37.8 °F 37.4 °F 91% 30.18 in 10.0 mi NNE 3.5 mph - N/A   Clear
5:00 AM 40.3 °F 35.5 °F 37.6 °F 90% 30.20 in 10.0 mi North 6.9 mph - N/A   Clear
5:15 AM 41.0 °F 39.0 °F 38.3 °F 90% 30.20 in 10.0 mi NE 3.5 mph - N/A   Clear
5:35 AM 39.7 °F - 37.8 °F 93% 30.20 in 10.0 mi Calm Calm - N/A   Clear
5:55 AM 38.5 °F - 37.2 °F 95% 30.21 in 10.0 mi Calm Calm - N/A   Clear
6:15 AM 38.8 °F - 37.9 °F 97% 30.21 in 10.0 mi Calm Calm - N/A   Clear
6:35 AM 38.1 °F 35.7 °F 37.8 °F 99% 30.22 in 10.0 mi SW 3.5 mph - N/A   Clear
6:55 AM 37.8 °F - 37.2 °F 98% 30.23 in 10.0 mi Calm Calm - N/A   Clear
7:15 AM 37.9 °F - 37.0 °F 97% 30.23 in 10.0 mi Calm Calm - N/A   Clear
7:35 AM 37.2 °F - 36.7 °F 98% 30.23 in 10.0 mi Calm Calm - N/A   Clear
7:55 AM 38.5 °F - 37.8 °F 97% 30.23 in 10.0 mi Calm Calm - N/A   Clear
8:15 AM 39.9 °F - 39.0 °F 97% 30.24 in 10.0 mi Calm Calm - N/A   Clear
8:35 AM 40.1 °F - 39.4 °F 97% 30.24 in 10.0 mi Calm Calm - N/A   Clear
8:55 AM 42.6 °F - 40.3 °F 91% 30.24 in 10.0 mi Calm Calm - N/A   Clear
9:15 AM 45.0 °F - 40.5 °F 84% 30.24 in 10.0 mi Calm Calm - N/A   Clear
9:35 AM 46.9 °F - 40.5 °F 78% 30.24 in 10.0 mi Calm Calm - N/A   Clear
9:55 AM 48.9 °F - 41.4 °F 75% 30.24 in 10.0 mi Calm Calm - N/A   Clear
10:15 AM 50.5 °F - 42.3 °F 73% 30.24 in 10.0 mi Calm Calm - N/A   Clear
10:35 AM 52.9 °F - 41.9 °F 66% 30.23 in 10.0 mi Calm Calm - N/A   Clear
10:55 AM 54.5 °F - 41.4 °F 61% 30.22 in 10.0 mi West 4.6 mph - N/A   Clear
11:15 AM 56.7 °F - 41.2 °F 56% 30.22 in 10.0 mi South 3.5 mph - N/A   Clear
11:35 AM 59.0 °F - 41.4 °F 52% 30.21 in 10.0 mi South 5.8 mph - N/A   Clear
11:55 AM 59.2 °F - 41.2 °F 51% 30.19 in 10.0 mi West 3.5 mph - N/A   Clear
12:15 PM 60.8 °F - 41.5 °F 49% 30.18 in 10.0 mi SSE 3.5 mph - N/A   Clear
12:35 PM 61.9 °F - 41.4 °F 47% 30.18 in 10.0 mi SSW 6.9 mph - N/A   Clear
12:55 PM 65.1 °F - 42.3 °F 43% 30.17 in 10.0 mi South 5.8 mph - N/A   Clear
1:15 PM 65.8 °F - 41.7 °F 41% 30.15 in 10.0 mi South 5.8 mph - N/A   Clear
1:35 PM 65.7 °F - 41.7 °F 42% 30.14 in 10.0 mi SW 4.6 mph - N/A   Clear
1:55 PM 67.1 °F - 42.4 °F 41% 30.13 in 10.0 mi SSE 6.9 mph - N/A   Clear
2:15 PM 68.0 °F - 42.8 °F 40% 30.11 in 10.0 mi WSW 3.5 mph - N/A   Clear
2:35 PM 68.5 °F - 42.4 °F 39% 30.10 in 10.0 mi SSE 5.8 mph - N/A   Clear
2:55 PM 70.0 °F - 42.3 °F 37% 30.09 in 10.0 mi ESE 3.5 mph - N/A   Clear
3:15 PM 70.3 °F - 41.9 °F 36% 30.08 in 10.0 mi South 5.8 mph - N/A   Clear
3:35 PM 71.1 °F - 42.1 °F 35% 30.07 in 10.0 mi SSW 4.6 mph - N/A   Clear
3:55 PM 71.1 °F - 41.9 °F 35% 30.06 in 10.0 mi ESE 5.8 mph - N/A   Clear
4:15 PM 71.6 °F - 41.7 °F 34% 30.05 in 10.0 mi ESE 5.8 mph - N/A   Clear
4:35 PM 71.6 °F - 41.4 °F 33% 30.04 in 10.0 mi SE 5.8 mph 16.1 mph N/A   Clear
4:55 PM 71.1 °F - 41.7 °F 35% 30.03 in 10.0 mi ESE 6.9 mph - N/A   Clear
5:15 PM 70.7 °F - 42.3 °F 36% 30.03 in 10.0 mi SE 5.8 mph - N/A   Clear
5:35 PM 69.6 °F - 42.1 °F 37% 30.03 in 10.0 mi ESE 4.6 mph - N/A   Clear
5:55 PM 68.9 °F - 42.3 °F 38% 30.03 in 10.0 mi SE 4.6 mph - N/A   Clear
6:15 PM 67.1 °F - 41.9 °F 40% 30.03 in 10.0 mi SSE 4.6 mph - N/A   Clear
6:35 PM 66.0 °F - 42.1 °F 42% 30.03 in 10.0 mi SE 4.6 mph - N/A   Clear
6:55 PM 64.8 °F - 42.4 °F 44% 30.03 in 10.0 mi SE 3.5 mph - N/A   Clear
7:15 PM 63.5 °F - 42.8 °F 47% 30.02 in 10.0 mi Calm Calm - N/A   Clear
7:35 PM 62.1 °F - 43.0 °F 50% 30.02 in 10.0 mi South 3.5 mph - N/A   Clear
7:55 PM 61.3 °F - 42.8 °F 51% 30.02 in 10.0 mi SSW 3.5 mph - N/A   Clear
8:15 PM 60.1 °F - 43.2 °F 54% 30.02 in 10.0 mi SW 3.5 mph - N/A   Clear
8:35 PM 59.7 °F - 43.0 °F 54% 30.02 in 10.0 mi Calm Calm - N/A   Clear
8:55 PM 58.8 °F - 43.0 °F 56% 30.02 in 10.0 mi Calm Calm - N/A   Clear
9:15 PM 56.1 °F - 44.2 °F 64% 30.01 in 10.0 mi Calm Calm - N/A   Clear
9:35 PM 54.3 °F - 44.4 °F 69% 30.01 in - NW 3.5 mph - N/A   Clear
9:55 PM 54.1 °F - 44.1 °F 69% 30.01 in 10.0 mi Calm Calm - N/A   Clear
10:15 PM 53.8 °F - 44.2 °F 70% 30.01 in 10.0 mi Calm Calm - N/A   Clear
10:35 PM 52.2 °F - 44.4 °F 75% 30.01 in 10.0 mi Calm Calm - N/A   Clear
10:55 PM 50.9 °F - 44.2 °F 78% 30.00 in 10.0 mi Calm Calm - N/A   Clear
11:15 PM 50.7 °F - 44.8 °F 80% 30.00 in 10.0 mi Calm Calm - N/A   Clear
11:35 PM 50.0 °F - 44.6 °F 82% 29.99 in 10.0 mi Calm Calm - N/A   Clear
11:55 PM 48.0 °F - 44.2 °F 87% 29.99 in 10.0 mi Calm Calm - N/A   Clear